Wind_Speed
20 15 22 25 23 19 13 14 15 7 4 5 14 15 13 6 8 11 12 12 13 12 9 10 9 10 10 15 18 18 22 28 24 25 27 27 29 28 36 32 27 24 25 29
13 23 21 17 19 19 17 16 14 8 5 11 15 15 14 11 8 9 11 13 13 13 13 13 12 12 15 17 20 24 23 25 26 25 26 26 26 24 33 37 30 25 23 36
24 7 20 16 17 19 21 19 16 13 3 11 11 16 18 12 6 6 9 10 13 15 16 15 15 16 16 16 18 19 23 27 25 25 21 22 18 23 21 30 33 28 26 34
17 25 8 20 24 19 20 20 17 14 8 9 3 13 14 9 16 10 8 12 13 16 16 15 16 19 21 19 17 19 20 27 27 28 27 28 33 31 28 32 37 27 28 35
13 12 22 18 21 19 20 10 12 16 11 11 15 9 14 5 12 11 10 11 14 16 17 18 18 21 22 22 22 21 21 22 28 32 30 30 28 30 23 25 30 36 28 35
25 4 14 22 14 16 7 7 8 9 10 12 13 11 9 3 4 2 4 2 10 16 18 18 21 21 20 22 24 24 23 24 25 33 33 32 32 29 23 23 28 32 32 35
25 21 12 14 21 15 15 12 6 8 8 11 7 9 15 5 8 10 7 6 7 15 18 19 20 19 24 24 24 25 26 27 27 31 31 34 31 26 25 26 25 30 33 34
15 14 20 13 16 14 24 21 8 10 10 8 9 7 4 4 2 4 9 8 5 13 17 20 21 22 25 28 28 27 29 28 29 31 33 35 33 29 28 30 31 30 34 36
18 18 13 13 12 15 16 17 14 6 2 4 9 8 9 11 10 5 7 4 4 12 16 19 19 23 25 27 30 31 29 29 31 33 35 35 35 35 33 32 31 33 32 30
5 11 16 21 12 16 11 12 11 10 13 10 7 10 6 8 5 3 3 9 1 8 13 16 17 22 24 25 27 28 29 30 31 32 35 37 38 37 37 35 36 37 36 36
9 8 6 13 16 19 13 10 9 8 13 11 7 5 6 11 5 0 7 9 3 5 11 14 16 21 24 24 27 28 29 29 30 32 33 35 38 39 40 37 38 38 36 38
14 5 6 16 5 16 17 20 18 9 11 8 10 10 6 5 5 4 8 7 4 3 7 12 15 20 24 27 28 30 30 31 32 32 33 34 33 35 38 40 40 39 41 39
4 7 10 9 7 4 11 12 12 17 13 12 9 3 1 3 9 6 7 11 6 2 5 8 12 16 20 27 29 31 33 35 32 32 33 33 35 36 38 39 38 38 38 39
8 5 11 9 5 1 7 10 13 12 11 13 15 16 13 9 12 14 11 10 8 7 4 7 10 13 18 24 28 30 32 33 34 34 34 35 36 38 37 36 36 37 38 38
8 0 1 2 0 1 1 3 9 13 13 13 10 11 11 11 9 10 14 12 11 12 11 10 10 10 14 20 25 27 30 32 33 34 35 39 37 35 34 34 35 35 36 38
5 3 4 1 1 5 7 7 6 10 9 7 8 10 8 10 13 12 14 15 16 13 12 12 14 14 13 18 24 26 29 31 32 35 39 35 34 34 36 35 34 33 34 35
3 2 3 2 2 4 7 13 5 5 4 4 5 4 7 8 10 13 14 10 16 15 15 14 11 11 11 17 22 25 29 26 30 33 32 32 31 32 33 32 32 34 34 31
4 2 4 2 6 3 3 4 0 7 8 6 6 6 7 10 13 9 13 12 13 16 15 13 9 8 10 15 19 22 22 28 30 30 29 29 30 30 28 29 30 30 29 30
13 5 3 4 6 7 5 4 2 2 5 6 6 7 8 11 10 6 13 16 15 15 14 12 15 17 17 12 14 18 20 24 26 29 31 29 28 27 27 28 26 25 23 23
12 11 6 2 4 6 3 6 2 2 4 7 6 9 10 12 7 5 15 15 17 18 18 17 17 13 14 15 14 14 17 20 24 24 24 24 25 26 25 25 23 18 19 19
8 8 12 9 6 4 2 1 1 6 2 9 9 10 11 9 10 15 13 14 14 14 19 20 16 13 14 16 14 12 11 14 17 17 16 17 20 21 19 17 15 20 22 19
8 9 7 10 7 6 5 2 4 6 6 9 11 13 13 15 17 15 15 14 13 14 14 16 15 15 19 20 14 7 6 6 3 7 11 13 13 16 18 20 20 17 17 18
4 3 3 7 7 5 6 5 7 7 6 8 10 12 13 15 15 14 12 12 10 10 14 14 11 12 17 19 19 9 7 4 7 11 13 16 17 16 16 19 19 19 17 16
5 2 2 1 3 2 4 5 10 10 8 8 10 12 13 14 13 13 12 10 9 10 14 16 13 13 14 17 18 20 17 8 9 16 16 16 20 19 15 14 13 15 17 16
3 1 2 4 5 3 5 8 11 12 11 12 12 12 13 13 12 13 10 10 9 10 14 18 17 17 17 16 16 18 18 12 12 10 13 19 22 22 23 22 15 14 10 14
2 3 4 4 5 3 5 10 11 11 13 13 12 12 12 12 11 10 9 12 14 14 16 16 19 21 23 20 19 18 17 15 17 17 15 14 17 21 22 25 31 28 20 15
Wind_Direction
202 209 212 212 218 234 270 249 252 231 162 255 249 261 271 272 214 222 221 220 211 210 194 185 190 190 187 183 175 169 170 169 167 167 169 168 167 180 187 197 188 178 181 178
192 226 222 226 222 231 234 240 235 239 269 231 256 253 269 270 250 234 218 219 213 196 195 186 187 191 191 179 180 181 178 178 180 177 183 182 180 181 190 203 209 187 191 193
224 234 218 216 219 220 227 234 243 255 191 245 273 264 256 239 235 230 222 223 206 200 193 188 188 193 188 186 180 178 178 182 182 183 179 177 181 177 193 205 206 203 203 198
239 235 206 210 228 216 230 228 250 253 254 257 198 275 268 253 270 225 218 205 203 197 196 188 189 190 191 190 187 186 183 182 186 183 177 182 179 188 193 197 211 205 212 205
226 227 225 229 230 215 237 234 239 239 247 267 249 258 267 226 260 243 229 198 205 197 192 189 191 193 192 185 188 191 187 186 184 185 186 184 186 195 203 194 198 213 202 202
280 240 233 228 234 214 255 209 221 226 238 242 239 246 279 234 205 221 239 214 201 191 189 190 187 186 190 190 188 190 188 188 187 184 187 189 195 195 200 184 181 184 197 204
252 249 237 231 227 200 208 201 207 210 208 236 209 234 245 239 268 288 276 288 189 191 188 190 185 186 186 190 194 193 193 192 189 186 189 189 195 196 191 189 187 188 193 203
223 244 215 201 219 205 202 195 200 204 214 226 167 238 225 263 310 266 286 292 230 192 191 192 190 189 188 188 192 195 196 194 192 193 196 200 200 198 201 199 196 191 193 197
197 221 247 196 198 222 196 221 238 273 3 253 203 235 265 247 257 251 324 301 210 191 192 196 193 192 192 191 193 193 197 198 194 197 197 201 204 207 208 208 206 207 203 203
235 231 209 214 225 210 203 198 206 221 229 228 216 245 241 193 293 354 29 18 58 178 186 193 197 196 197 197 198 198 199 200 199 198 199 202 206 211 211 212 211 212 214 216
265 245 171 184 204 209 203 204 228 242 228 240 239 226 164 249 284 202 352 356 20 182 185 189 196 199 202 200 200 201 203 203 202 204 205 205 207 208 209 215 217 217 216 219
210 276 216 202 159 231 226 216 213 219 194 238 256 250 136 264 295 305 318 338 353 209 203 192 191 194 199 202 202 202 205 207 207 205 206 210 212 211 211 215 216 216 220 220
331 226 217 232 212 181 211 214 235 232 251 235 217 203 181 327 297 263 278 309 301 262 174 196 195 195 200 203 205 206 205 208 208 208 209 211 212 213 216 218 218 218 222 225
301 222 241 228 238 159 204 219 216 209 222 235 246 256 264 267 281 296 299 305 300 306 235 194 199 206 206 206 208 209 210 210 209 208 210 212 213 215 216 218 220 222 222 223
327 6 350 207 190 3 216 252 245 237 241 245 257 238 252 269 279 295 312 301 307 294 277 257 231 210 210 209 211 214 215 210 210 212 213 216 214 214 218 219 221 223 223 226
298 342 324 260 9 262 262 265 238 231 228 241 250 263 277 292 301 292 292 308 295 308 288 275 261 252 224 214 214 210 215 214 206 211 218 219 217 216 216 219 220 222 224 226
318 230 307 201 329 305 240 226 199 139 128 194 210 24 346 328 320 320 313 323 306 307 322 318 298 273 257 237 220 214 213 207 210 214 217 217 218 219 220 218 220 223 226 228
262 239 205 264 337 244 76 13 121 112 81 47 45 2 355 340 319 24 26 350 323 320 322 322 321 323 301 277 254 235 218 208 209 214 217 215 214 215 217 218 222 224 223 223
220 235 230 211 229 271 219 153 125 287 116 45 26 17 2 344 307 96 19 3 348 339 323 315 321 312 317 295 267 251 238 227 214 217 215 212 212 212 210 213 216 220 222 225
202 224 248 162 226 224 71 124 93 199 171 24 7 7 352 339 340 347 351 346 341 343 348 341 328 320 320 329 309 259 231 227 229 221 219 214 211 210 211 210 207 206 208 209
177 200 216 217 241 244 234 66 204 227 44 348 348 342 339 324 319 317 331 329 334 335 342 348 339 358 358 348 324 297 267 244 239 225 211 208 207 209 208 193 184 190 195 193
174 183 193 220 229 237 348 204 268 22 348 340 349 344 330 315 302 304 313 321 332 333 350 2 7 11 13 2 344 329 5 354 264 179 167 155 164 165 165 176 172 176 176 162
211 212 193 198 208 112 58 63 55 22 358 357 338 340 342 328 321 321 313 324 345 356 355 2 35 30 30 21 8 23 35 75 117 113 105 120 133 137 147 153 148 144 154 147
214 197 254 254 117 80 59 69 25 12 9 358 352 348 350 341 335 335 330 359 357 10 6 359 6 51 42 35 29 25 23 35 106 108 103 104 99 99 101 111 124 132 139 132
325 173 263 251 265 357 97 25 4 353 3 1 2 1 357 349 345 345 2 1 4 22 17 10 13 23 30 36 38 32 30 43 49 61 95 103 104 99 88 78 74 91 106 138
227 293 255 296 64 359 324 0 3 352 353 359 356 358 358 356 351 355 17 9 11 10 34 34 24 18 12 22 23 30 52 59 57 46 40 60 89 96 94 92 76 69 88 115
Height
746 747 740 731 733 731 730 734 733 723 727 737 731 724 716 709 720 723 722 724 731 737 742 749 754 758 760 761 763 767 769 773 778 782 786 791 795 803 808 813 817 821 825 829
742 740 727 728 730 736 737 737 732 724 729 734 723 719 710 704 710 709 714 717 722 733 739 746 751 755 757 760 762 765 768 772 777 782 787 791 796 801 807 811 814 819 823 827
732 726 727 730 736 740 734 735 731 733 732 726 729 724 711 700 706 708 710 708 714 724 731 741 746 751 754 757 760 763 766 770 775 780 786 791 796 801 804 807 811 815 820 824
730 721 727 730 731 730 735 724 730 733 740 735 724 732 705 700 701 700 699 707 709 716 724 732 740 745 748 753 757 760 764 767 772 778 781 785 786 794 797 803 807 812 817 822
726 725 726 729 719 720 725 719 731 731 734 733 725 731 704 699 705 695 689 692 701 709 718 725 732 738 744 749 754 757 761 765 768 774 778 783 787 793 799 803 805 807 813 819
732 713 718 716 714 716 719 728 731 730 730 742 724 725 706 695 697 691 687 687 693 700 710 717 726 733 739 746 749 753 756 761 766 770 774 780 785 790 795 798 802 805 812 817
742 719 713 711 717 716 722 727 740 744 742 736 709 721 706 687 686 685 687 683 687 693 702 711 718 725 731 739 744 748 751 755 761 764 770 775 780 784 788 791 795 800 805 812
738 733 711 708 707 715 714 714 715 736 729 719 713 721 701 681 679 681 681 679 683 689 696 703 710 719 726 731 737 744 746 749 754 759 765 771 775 777 783 787 791 796 798 803
721 721 703 703 702 702 712 714 699 717 721 716 706 701 692 681 680 679 678 679 679 683 689 697 705 712 719 726 730 734 740 744 748 753 758 763 768 773 777 782 785 789 793 798
704 712 698 701 704 697 700 695 720 718 728 730 705 707 703 689 683 678 678 677 677 681 685 691 699 707 714 721 726 731 734 737 743 747 749 753 758 765 771 775 777 781 786 791
705 703 701 694 703 697 702 703 702 695 702 712 716 703 686 685 679 681 679 676 676 678 682 687 693 701 709 715 720 724 728 732 735 740 745 748 750 755 760 764 769 773 779 783
706 703 701 697 686 681 682 691 694 704 710 707 706 700 682 684 677 681 678 675 674 675 676 680 686 694 701 707 712 716 722 725 728 732 737 741 747 750 751 754 757 763 767 773
710 703 705 703 696 690 691 689 691 692 696 704 717 703 677 684 680 674 676 672 670 673 676 678 683 686 692 697 702 707 711 714 721 725 729 734 737 741 743 746 751 756 760 764
715 703 701 701 695 694 698 692 687 696 707 706 701 695 687 685 682 676 672 670 670 672 672 675 679 681 684 688 693 697 701 707 711 716 720 723 726 729 734 740 745 748 751 754
719 721 710 704 705 703 702 701 694 694 692 700 693 691 686 681 680 677 674 672 671 672 672 671 672 673 676 680 684 689 692 696 701 707 709 708 714 720 726 730 734 738 742 745
723 724 717 712 703 702 703 695 692 690 690 692 692 692 678 676 677 678 677 671 668 668 666 665 665 666 667 670 674 678 682 686 690 694 694 701 706 710 712 718 723 728 731 734
730 731 723 718 707 707 709 696 691 691 688 689 695 690 685 684 683 680 675 676 672 668 666 665 664 664 662 662 664 667 670 677 681 683 686 691 696 700 703 707 712 716 719 725
729 728 723 720 720 726 695 689 687 690 694 693 695 697 694 693 688 684 685 684 681 673 667 663 662 661 661 662 660 661 663 665 669 673 678 682 686 690 695 700 703 706 710 712
728 726 721 718 716 702 691 694 692 693 704 701 698 697 695 691 682 682 686 685 683 678 670 663 661 661 659 659 658 657 657 660 661 663 666 670 677 681 685 688 693 698 703 706
723 725 720 724 717 714 692 694 694 695 699 700 700 700 699 693 695 681 685 686 683 677 671 666 663 660 660 658 659 655 651 652 654 655 659 664 668 672 677 681 685 690 695 698
730 727 724 722 715 701 694 698 698 703 708 703 701 699 700 700 695 689 688 687 684 682 675 671 667 661 661 659 658 654 651 651 652 653 654 659 664 668 672 677 683 684 688 693
713 715 720 718 719 716 698 696 701 708 705 706 703 702 703 701 695 690 687 686 683 681 678 673 670 668 664 662 659 657 656 658 660 656 657 658 663 666 669 673 676 683 688 691
705 700 700 701 701 700 701 704 710 714 714 712 711 711 710 701 694 693 688 685 685 685 684 681 675 673 673 673 670 665 661 661 662 662 661 661 662 668 670 673 675 680 687 695
698 702 701 701 697 700 705 710 714 716 718 719 717 714 712 710 705 700 693 691 690 690 692 690 685 677 677 676 677 673 669 667 666 663 665 669 668 673 677 680 682 686 688 693
698 702 699 698 697 704 712 715 722 721 720 720 720 719 718 716 711 707 702 704 703 700 700 699 694 689 686 681 681 679 677 674 675 676 674 672 673 677 682 686 691 695 697 696
699 698 701 698 720 724 720 723 727 726 724 725 725 724 723 723 718 715 713 714 712 709 703 705 705 702 696 692 690 686 680 681 683 684 686 684 681 683 689 692 699 706 701 705